Wind_Speed
7 8 9 10 10 9 9 10 10 11 11 11 11 11 10 9 7 6 5 5 4 3 3 3 2 2 1 1 2 2 2 1 2 4 4 4 5 6 7 7 8 8 9
6 7 8 9 9 9 8 9 10 10 11 11 11 10 10 9 8 7 6 5 5 5 4 3 3 3 2 2 2 2 3 2 3 4 5 6 6 6 7 8 8 8 8
5 6 7 8 8 8 8 8 9 9 10 10 10 10 10 9 8 8 6 5 5 6 6 4 4 4 3 3 3 3 3 3 4 4 5 5 6 7 7 7 8 8 9
5 6 7 7 7 7 7 7 8 9 9 9 9 9 10 9 8 7 7 6 6 6 6 5 5 4 5 5 4 3 4 4 4 4 5 5 6 7 7 7 8 8 9
6 7 7 8 7 7 7 6 7 8 9 9 9 9 9 9 8 6 7 7 6 6 6 5 5 5 6 6 5 5 5 5 5 5 5 6 6 7 7 8 8 7 8
7 7 7 8 8 8 8 7 7 8 8 9 8 9 8 8 7 6 7 7 7 6 5 5 5 5 6 6 6 6 6 6 6 6 6 7 7 7 7 8 8 9 9
8 8 8 8 8 8 8 7 7 7 8 8 9 9 9 8 6 6 6 6 6 7 7 6 6 6 6 6 7 7 7 7 7 7 7 7 7 8 8 9 9 10 10
9 9 9 9 8 8 8 7 6 7 7 8 9 8 9 8 7 6 6 6 6 6 6 7 7 7 7 8 8 8 8 8 8 8 8 8 8 9 9 10 10 11 11
10 10 10 9 9 8 8 8 8 7 8 8 8 8 9 8 7 6 6 6 6 6 6 7 7 8 8 8 8 9 9 9 9 9 9 10 10 11 11 11 11 12 13
11 11 11 10 9 9 9 8 8 8 8 8 9 9 9 8 7 7 7 7 7 7 8 8 8 9 9 10 10 10 10 11 11 11 11 11 11 11 12 12 12 13 13
13 13 12 12 10 9 9 9 8 9 9 9 9 8 9 8 8 8 8 8 8 9 9 9 9 10 10 11 11 11 12 12 12 12 12 12 13 13 13 13 13 13 14
15 14 13 12 11 10 10 9 9 10 10 9 9 9 9 9 9 9 9 9 10 10 10 10 10 11 11 12 13 13 13 13 13 13 13 13 13 14 14 14 14 14 14
15 14 14 14 13 13 12 11 11 11 11 11 10 11 10 10 10 10 10 10 10 10 10 11 11 12 12 13 14 14 14 14 14 14 14 15 15 15 15 15 14 14 14
16 16 15 15 14 14 14 13 12 12 12 12 12 12 11 11 12 12 12 12 12 12 11 11 11 12 13 14 15 15 15 15 15 15 15 16 16 16 17 16 16 16 16
17 17 16 16 15 15 15 15 14 14 14 14 14 13 13 13 13 14 14 14 13 13 12 12 13 14 14 15 15 15 16 16 16 16 17 17 17 17 17 17 17 17 18
19 19 18 17 17 17 16 16 16 15 15 15 15 14 14 14 15 16 16 15 15 14 13 14 14 14 15 16 16 16 17 17 17 18 18 18 18 18 18 17 18 18 18
20 19 19 19 18 18 18 17 18 17 17 16 17 16 16 16 17 16 17 17 16 16 16 16 16 16 17 18 18 18 18 18 18 18 19 19 19 19 18 19 18 19 19
22 21 21 21 20 19 19 19 19 19 17 18 18 18 18 18 18 18 18 17 17 17 17 17 18 18 18 18 18 18 19 20 20 20 20 20 20 20 20 19 19 19 20
23 22 22 22 21 21 20 19 19 19 19 20 20 20 20 20 19 19 19 19 18 18 18 19 19 20 19 19 18 19 20 21 21 21 21 21 21 21 21 20 20 20 21
24 23 22 23 22 21 21 20 20 21 21 21 21 22 22 22 21 21 20 20 20 20 20 21 21 21 20 20 20 20 21 21 21 22 22 22 22 22 22 21 21 21 21
25 24 23 23 22 22 21 22 21 22 22 22 23 23 23 23 22 22 22 22 21 21 21 22 22 22 22 22 22 22 23 23 22 22 22 22 22 22 22 22 22 22 22
26 25 24 24 23 23 23 23 22 22 23 23 23 23 23 23 23 22 23 23 22 22 22 23 23 23 22 22 23 23 23 23 23 23 22 22 22 22 22 22 22 22 21
27 26 26 25 25 24 24 24 24 24 24 23 23 23 23 23 24 23 23 23 24 24 24 24 24 23 23 23 24 23 23 23 23 23 22 22 22 22 22 22 21 21 21
27 27 26 26 25 25 25 25 25 25 25 24 24 24 24 24 25 24 24 24 25 25 25 25 25 25 25 25 25 24 23 23 23 23 23 22 22 23 23 22 22 22 22
28 28 27 26 27 26 26 26 25 25 25 24 24 24 24 24 24 24 25 24 25 25 26 26 25 25 25 25 25 24 23 23 23 23 23 23 23 23 23 23 22 22 22
28 27 27 27 27 27 26 26 26 25 25 25 25 25 25 25 25 25 26 25 25 25 25 25 25 25 25 24 24 24 23 23 23 23 23 23 23 24 23 23 23 23 23
Wind_Direction
29 27 24 25 27 28 30 31 30 29 30 31 30 31 33 31 28 28 24 30 37 39 35 27 22 19 16 18 15 340 319 288 284 277 270 262 265 262 259 257 255 263 261
13 12 11 15 20 20 21 25 25 26 27 26 25 24 23 22 24 23 28 28 35 37 33 27 19 19 23 27 22 358 344 317 302 285 276 268 268 270 270 261 262 266 264
356 358 1 5 8 11 13 16 18 18 20 21 21 18 17 17 21 23 29 34 36 31 35 36 28 31 36 31 19 353 345 333 313 294 288 282 279 276 276 277 273 270 268
334 339 344 348 349 356 1 4 9 10 11 13 13 13 14 16 19 24 31 35 36 35 35 33 37 32 20 5 359 352 349 339 328 319 304 290 292 293 292 285 278 277 272
316 323 329 333 335 344 350 352 356 1 4 5 6 9 9 11 13 24 33 35 32 28 25 26 23 18 13 12 8 358 349 343 336 325 315 303 296 297 297 293 285 281 278
304 311 316 322 324 327 335 341 346 354 358 360 1 359 360 8 17 19 24 27 26 25 20 17 11 7 5 4 0 353 342 335 327 320 314 307 300 302 303 300 292 290 288
295 300 305 309 313 314 321 330 334 342 350 356 356 356 358 6 13 13 13 14 14 16 19 14 8 0 352 349 349 348 340 333 328 318 311 306 302 298 296 296 293 292 289
285 291 296 301 303 302 311 319 325 335 344 348 352 355 356 0 3 3 3 2 0 1 3 0 360 356 351 344 341 342 342 336 326 315 307 302 302 302 300 297 295 294 290
278 284 289 293 297 299 305 311 316 325 335 340 345 345 344 344 350 356 358 357 352 347 344 345 346 345 341 338 336 335 333 328 323 319 313 308 305 302 304 303 299 296 293
270 275 281 287 288 291 298 302 307 316 323 330 336 337 337 337 337 339 340 343 340 337 331 330 331 333 334 332 328 326 327 327 323 318 314 311 310 310 307 305 300 297 294
265 269 273 277 280 285 290 298 302 304 308 315 323 327 329 326 325 325 326 329 329 327 325 322 323 323 324 324 323 324 323 322 320 316 314 312 309 307 304 302 299 297 296
260 263 265 268 272 278 285 291 296 299 302 308 312 314 317 318 317 316 316 315 316 317 317 317 318 317 316 317 317 317 317 317 317 316 315 315 311 308 306 302 299 298 295
258 259 259 263 267 270 276 282 287 292 297 301 303 304 305 308 309 308 308 309 309 309 309 311 313 314 315 315 316 316 315 314 314 314 313 314 312 309 307 304 300 299 298
257 258 258 263 265 267 272 275 279 285 290 294 296 298 301 303 303 303 304 304 303 303 305 306 310 313 313 314 314 315 316 315 315 314 312 312 313 311 307 303 299 298 300
252 256 259 261 264 266 269 271 276 280 284 286 288 291 295 297 300 302 302 299 298 298 299 301 304 308 310 312 312 313 313 312 312 312 312 311 311 311 308 305 301 300 300
250 253 256 259 263 264 267 271 274 277 280 281 282 284 290 293 297 299 300 299 296 296 298 298 301 306 308 309 309 310 310 310 310 310 309 309 309 308 307 305 302 301 301
248 249 253 259 262 263 265 270 272 275 278 278 280 283 287 291 293 294 295 294 292 291 293 296 300 305 307 307 307 306 307 308 308 308 308 309 308 307 305 303 302 302 302
246 249 254 258 262 263 265 268 271 273 276 277 280 282 285 288 291 291 290 290 290 290 290 293 297 300 302 304 304 303 304 305 307 307 308 308 308 307 305 302 302 302 302
245 250 256 258 262 261 263 266 271 274 274 276 279 281 284 285 287 290 289 288 287 287 289 292 296 299 299 299 299 301 304 305 306 306 306 305 305 306 305 302 302 301 302
244 251 255 256 258 259 261 265 270 273 276 277 280 282 283 285 286 287 288 288 287 288 288 291 293 296 297 298 299 300 303 303 302 301 301 300 301 302 302 301 300 299 300
246 250 252 253 255 257 260 266 269 272 275 278 280 281 282 283 285 286 286 287 286 288 289 290 291 292 293 294 296 297 299 301 301 301 300 299 298 299 300 301 301 300 299
246 249 252 253 255 256 260 264 266 270 273 276 278 280 281 282 283 284 285 285 284 286 288 290 290 290 290 292 294 295 296 299 301 301 300 299 299 298 299 301 301 302 300
247 250 252 254 254 255 259 262 266 269 273 275 277 278 279 281 283 283 285 285 284 285 287 288 288 289 289 291 293 295 296 298 299 300 299 298 298 299 299 300 301 302 302
248 250 252 254 254 256 259 262 266 268 270 273 275 276 278 280 283 284 284 285 284 284 285 285 287 288 290 290 292 294 295 296 296 297 297 298 298 298 298 298 299 300 300
247 249 252 254 255 256 259 262 264 266 269 271 272 274 276 279 283 284 285 284 284 285 285 284 284 286 287 289 291 292 293 294 294 294 293 294 296 299 298 298 298 299 300
247 250 252 254 255 257 260 263 265 267 268 270 272 274 275 278 282 283 283 283 283 284 284 283 283 284 285 287 289 290 291 292 293 293 293 294 296 297 296 297 298 298 299
Height
5915 5913 5912 5911 5909 5907 5906 5904 5902 5901 5899 5897 5895 5894 5892 5891 5889 5888 5887 5886 5885 5884 5884 5883 5883 5882 5882 5881 5881 5880 5879 5878 5878 5878 5877 5877 5877 5877 5876 5876 5876 5876 5876
5916 5914 5913 5911 5910 5909 5907 5906 5904 5902 5900 5898 5897 5895 5893 5892 5890 5889 5887 5886 5886 5885 5884 5884 5883 5883 5882 5881 5881 5880 5879 5879 5878 5877 5876 5876 5876 5875 5875 5875 5875 5875 5875
5916 5915 5913 5912 5911 5909 5908 5907 5905 5903 5902 5900 5898 5896 5895 5893 5891 5889 5888 5887 5886 5886 5885 5884 5883 5883 5882 5881 5880 5880 5879 5878 5877 5876 5876 5875 5875 5874 5874 5873 5873 5873 5873
5916 5915 5913 5912 5911 5910 5908 5907 5905 5904 5902 5900 5899 5897 5895 5894 5892 5890 5889 5888 5887 5886 5885 5884 5883 5883 5882 5881 5880 5879 5878 5878 5876 5876 5875 5874 5873 5873 5872 5872 5871 5871 5871
5915 5914 5913 5912 5911 5909 5908 5907 5905 5904 5902 5901 5899 5897 5896 5894 5893 5891 5890 5889 5888 5887 5886 5885 5884 5883 5882 5881 5880 5879 5878 5877 5876 5875 5874 5873 5873 5872 5871 5870 5869 5869 5869
5914 5913 5912 5911 5910 5909 5907 5906 5905 5903 5902 5900 5899 5898 5896 5894 5893 5892 5891 5889 5888 5887 5886 5885 5884 5883 5882 5881 5879 5878 5877 5876 5875 5874 5873 5872 5871 5870 5869 5868 5867 5867 5867
5913 5912 5911 5910 5909 5908 5907 5906 5904 5903 5901 5900 5899 5898 5896 5895 5893 5892 5891 5890 5889 5888 5886 5885 5884 5883 5882 5880 5879 5878 5877 5875 5874 5873 5872 5871 5870 5869 5868 5867 5866 5865 5864
5911 5910 5909 5908 5907 5906 5906 5905 5903 5902 5901 5900 5899 5898 5897 5895 5893 5892 5891 5890 5889 5888 5887 5885 5884 5882 5881 5880 5878 5877 5875 5874 5872 5871 5870 5869 5868 5867 5866 5864 5863 5862 5861
5909 5908 5907 5906 5906 5905 5904 5904 5903 5901 5900 5899 5898 5897 5896 5895 5893 5892 5891 5890 5889 5887 5886 5885 5884 5882 5880 5879 5877 5876 5874 5872 5871 5869 5868 5867 5865 5864 5863 5862 5860 5859 5858
5906 5906 5905 5905 5904 5903 5903 5902 5902 5901 5899 5898 5897 5896 5895 5894 5893 5891 5890 5889 5888 5887 5886 5884 5883 5881 5879 5878 5876 5875 5873 5871 5869 5867 5866 5864 5863 5861 5860 5858 5857 5856 5854
5903 5903 5903 5903 5902 5902 5901 5901 5900 5899 5898 5897 5896 5895 5893 5892 5891 5890 5889 5888 5887 5886 5884 5883 5881 5880 5878 5876 5875 5873 5871 5869 5867 5865 5863 5861 5860 5858 5857 5855 5853 5852 5850
5900 5900 5900 5900 5900 5899 5899 5899 5898 5897 5896 5895 5894 5893 5892 5891 5889 5888 5887 5886 5885 5884 5882 5881 5879 5878 5876 5874 5872 5870 5868 5866 5864 5862 5860 5858 5857 5855 5853 5852 5850 5848 5847
5896 5896 5897 5897 5897 5897 5897 5896 5896 5895 5894 5893 5892 5891 5890 5889 5887 5886 5885 5884 5882 5881 5880 5879 5877 5875 5873 5872 5870 5867 5865 5863 5861 5860 5858 5855 5853 5852 5850 5848 5846 5844 5843
5891 5892 5893 5893 5893 5893 5893 5893 5893 5892 5891 5890 5889 5888 5887 5886 5885 5883 5882 5881 5880 5878 5877 5876 5874 5873 5871 5869 5866 5864 5862 5860 5858 5856 5854 5852 5850 5848 5846 5844 5843 5841 5839
5887 5888 5888 5889 5889 5890 5890 5890 5889 5889 5888 5887 5886 5885 5884 5883 5882 5880 5879 5878 5877 5875 5874 5873 5871 5869 5867 5865 5863 5861 5859 5857 5855 5853 5850 5848 5847 5844 5842 5840 5839 5837 5834
5882 5883 5883 5884 5885 5885 5886 5885 5885 5884 5884 5883 5883 5882 5881 5879 5878 5876 5875 5874 5873 5872 5871 5869 5868 5866 5864 5862 5859 5857 5855 5853 5851 5849 5847 5845 5842 5840 5838 5836 5834 5832 5830
5876 5877 5878 5879 5880 5880 5881 5881 5880 5880 5879 5879 5878 5878 5877 5875 5874 5872 5871 5870 5869 5868 5866 5865 5864 5862 5860 5858 5855 5853 5851 5849 5847 5845 5843 5840 5838 5836 5834 5832 5830 5828 5825
5869 5871 5872 5874 5874 5875 5876 5876 5875 5875 5875 5874 5874 5873 5872 5871 5869 5868 5866 5866 5864 5863 5862 5860 5859 5857 5855 5853 5851 5849 5847 5845 5842 5840 5838 5836 5833 5831 5829 5827 5825 5822 5820
5863 5865 5866 5867 5869 5870 5870 5870 5870 5870 5870 5869 5869 5868 5867 5866 5865 5863 5862 5861 5859 5858 5857 5856 5854 5852 5850 5848 5846 5844 5842 5840 5837 5835 5833 5831 5829 5826 5824 5822 5820 5817 5815
5856 5858 5860 5861 5862 5863 5864 5865 5865 5865 5864 5864 5863 5862 5861 5860 5859 5858 5857 5856 5854 5853 5852 5850 5848 5847 5845 5843 5841 5839 5837 5835 5832 5830 5828 5826 5824 5821 5819 5816 5814 5812 5810
5849 5851 5853 5854 5856 5857 5858 5859 5859 5859 5859 5858 5857 5856 5855 5854 5853 5852 5851 5850 5848 5847 5846 5844 5843 5841 5839 5837 5835 5833 5831 5829 5827 5824 5822 5820 5818 5816 5813 5811 5809 5806 5804
5842 5844 5846 5848 5849 5851 5852 5853 5853 5853 5852 5852 5851 5850 5849 5848 5847 5846 5845 5843 5842 5841 5839 5838 5836 5834 5833 5831 5829 5827 5825 5823 5820 5818 5816 5814 5812 5810 5807 5805 5803 5800 5798
5835 5837 5839 5841 5842 5844 5845 5846 5846 5846 5846 5845 5845 5844 5843 5842 5841 5839 5838 5836 5835 5834 5833 5831 5830 5828 5826 5824 5823 5821 5819 5816 5814 5812 5810 5808 5806 5803 5801 5799 5797 5795 5792
5827 5829 5832 5833 5835 5837 5838 5839 5839 5839 5839 5838 5838 5837 5836 5835 5834 5832 5831 5830 5828 5827 5825 5824 5822 5821 5819 5817 5815 5813 5811 5809 5807 5805 5803 5801 5799 5797 5795 5793 5791 5789 5786
5819 5822 5824 5826 5828 5829 5831 5831 5832 5832 5832 5831 5831 5830 5829 5828 5827 5825 5824 5822 5821 5819 5818 5816 5814 5813 5812 5810 5808 5806 5804 5802 5800 5798 5796 5795 5793 5790 5788 5787 5784 5782 5780
5812 5814 5816 5818 5820 5821 5823 5823 5824 5824 5824 5824 5824 5823 5822 5821 5819 5818 5816 5814 5813 5811 5810 5808 5807 5805 5804 5802 5800 5798 5797 5795 5793 5791 5789 5788 5786 5784 5782 5780 5778 5776 5773